Location: Barcelona
(41.3830°N, 2.1830°E)
Time: 01:05:38
(UTC+01:00)

ISS - Pass Details

Date: 21 February 2020
Orbit: 415 x 422 km, 51.6° (Epoch: 27 February)

Event Time Altitude Azimuth Distance (km) Brightness Sun altitude
Exits shadow 05:51:19 - 177° (S) 2,177 -0.1 -20.9°
Reaches altitude 10° 05:54:37 10° 136° (SE) 1,494 -0.4 -20.2°
Maximum altitude 05:55:05 10° 128° (SE) 1,482 -0.3 -20.2°
Drops below altitude 10° 05:55:33 10° 120° (ESE) 1,497 -0.2 -20.1°
Sets 05:59:25 0° 75° (ENE) 2,370 1.6 -19.3°
